Regional Weather Roundup
Issued by NWS Memphis, TN

Home | Current Version | Previous Version | Text Only | Print | Product List | Glossary On
Versions: 1 2 3 4 5 6 7 8 9 10 11 12 13 14 15 16 17 18 19 20 21 22 23 24 25 26 27 28 29 30 31 32 33 34 35 36 37 38 39 40 41 42 43 44 45 46 47 48 49 50
000
ASUS44 KMEG 310910
RWRMEG
MEMPHIS CWA HOURLY WEATHER ROUNDUP
NATIONAL WEATHER SERVICE MEMPHIS TN
400 AM CDT SUN AUG 31 2014

...WEST TENNESSEE...

CITY           SKY/WX    TMP DP  RH WIND       PRES   REMARKS
MEMPHIS INTL   CLOUDY    75  72  90 S8        29.97S
NWS MEMPHIS      N/A     73 N/A N/A MISG        N/A
JACKSON        CLOUDY    72  70  94 S6        29.99F
LEXINGTON      CLOUDY    70  70 100 SE5       30.02S
SAVANNAH       PTCLDY    72  72 100 S9        30.03F
DYERSBURG      CLOUDY    72  63  73 SE7       29.98F
UNION CITY     CLOUDY    72  72 100 S7        29.98S
PARIS          CLOUDY    70  68  94 S7        30.01F
HUNTINGDON     CLOUDY    70  69  96 SE8       30.01F


...EASTERN ARKANSAS...

CITY           SKY/WX    TMP DP  RH WIND       PRES   REMARKS
JONESBORO      CLOUDY    73  72  96 CALM      29.96R
WEST MEMPHIS   LGT RAIN  74  74 100 SW9       29.95S FOG
BATESVILLE     PTCLDY    73  70  88 CALM      29.96S
NEWPORT        CLOUDY    74  74 100 SW3       29.97S
WALNUT RIDGE   CLOUDY    73  68  83 CALM      29.95F
BLYTHEVILLE    LGT RAIN  73  73 100 S6        29.96F
SEARCY         CLOUDY    74  73  96 CALM      29.97S
STUTTGART      CLOUDY    75  72  88 SW7       29.99R
PINE BLUFF     CLOUDY    74  72  93 SW6       29.98R
MONTICELLO     CLOUDY    75  73  93 SW6       29.99R


...NORTH MISSISSIPPI...

CITY           SKY/WX    TMP DP  RH WIND       PRES   REMARKS
TUPELO         CLOUDY    73  71  93 S7        30.04S
OLIVE BRANCH   CLOUDY    72 N/A N/A S10       29.99S
CLARKSDALE     CLOUDY    73  73 100 S5        30.00R
CORINTH        CLOUDY    73  70  88 S9        30.02S
GRENADA        MOCLDY    72  70  94 S3        30.03R
GREENWOOD      MOCLDY    73  71  93 S7        30.03R
COLUMBUS       MOCLDY    72  72 100 S7        30.06S
STARKVILLE     PTSUNNY   70  70 100 CALM      30.06S
GOLDEN TRIANGL MOCLDY    72  68  88 S9        30.07R


...SOUTHEAST MISSOURI...

CITY           SKY/WX    TMP DP  RH WIND       PRES   REMARKS
WEST PLAINS    CLOUDY    72  68  87 SW7       30.00S
POPLAR BLUFF   CLOUDY    73  69  87 CALM      29.96S
CAPE GIRARDEAU CLOUDY    74  71  91 S5        29.97S


...NORTHWEST ALABAMA...

CITY           SKY/WX    TMP DP  RH WIND       PRES   REMARKS
MUSCLE SHOALS  CLOUDY    72  69  90 SE7       30.08R


...MIDDLE TENNESSEE...

CITY           SKY/WX    TMP DP  RH WIND       PRES   REMARKS
NASHVILLE      RAIN      71  70  96 SE6       30.07S FOG
CLARKSVILLE    CLOUDY    72  70  93 SE6       30.03S
DICKSON        CLOUDY    70  70 100 S5        30.05S
COLUMBIA         N/A     72  72 100 CALM      30.05S
LEWISBURG      CLOUDY    71  68  90 S3        30.07S


...WESTERN KENTUCKY...

CITY           SKY/WX    TMP DP  RH WIND       PRES   REMARKS
PADUCAH        CLOUDY    74  70  87 S6        29.98S
FORT CAMPBELL  DRIZZLE   72  72 100 S5        30.03S


...CENTRAL ARKANSAS...

CITY           SKY/WX    TMP DP  RH WIND       PRES   REMARKS
LITTLE ROCK    CLOUDY    74  70  87 SW5       29.97R


SKY/WX REPORTED AS FAIR MEANS FEW OR NO CLOUDS BELOW
12 THOUSAND FEET.



USA.gov is the U.S. government's official web portal to all federal, state and local government web resources and services.